Tracking 19242 objects as of 19-Sep-2018
HD Live streaming from Space Station
objects crossing your sky now

IRIDIUM 36

Track IRIDIUM 36 now!
10-day predictions
IRIDIUM 36 is classified as:


NORAD ID: 24967
Int'l Code: 1997-056C
Perigee: 778.3 km
Apogee: 781.6 km
Inclination: 86.4 °
Period: 100.3 minutes
Semi major axis: 7150 km
RCS: 3.602 m2 (large)
Launch date: September 27, 1997
Source: United States (US)
Launch site: AIR FORCE WESTERN TEST RANGE (AFWTR)
aabbcc
Your satellite tracking list
Your tracking list is empty




NASA's NSSDC Master Catalog

Two Line Element Set (TLE):
1 24967U 97056C   18261.54408256  .00000079  00000-0  20453-4 0  9991
2 24967  86.3962 125.8368 0002256  88.2114 271.9341 14.35680411 98621
Source of the keplerian elements: AFSPC